Hourly Data Report for October 09, 2016

TORONTO CITY
ONTARIO

43°40'00.000" N
79°24'00.000" W
112.50 m
6158355
71508
XTO

Download Data

Hourly Data (October 2016)
Hourly Data Report for October 9, 2016
TIME
LST
Temp Definition
°C
Dew Point Definition
°C
Rel Hum Definition
%
Precip. Amount Definition
mm

Wind Dir Definition
10's deg

Wind Spd Definition
km/h
Visibility Definition
km
Stn Press Definition
kPa
Hmdx Definition


Wind Chill Definition


Weather Definition


00:00 9.5 4.3 70 0.0 LegendMM LegendMM   100.79     LegendNANA
01:00 9.1 4.4 73 0.0 LegendMM LegendMM   100.84     LegendNANA
02:00 8.8 4.5 75 0.0 LegendMM LegendMM   100.85     LegendNANA
03:00 8.3 4.3 76 0.0 LegendMM LegendMM   100.87     LegendNANA
04:00 8.4 5.0 79 0.0 LegendMM LegendMM   100.89     LegendNANA
05:00 9.1 5.2 76 0.0 LegendMM LegendMM   100.95     LegendNANA
06:00 9.0 5.1 76 0.0 LegendMM LegendMM   101.01     LegendNANA
07:00 9.2 5.5 77 0.0 LegendMM LegendMM   101.09     LegendNANA
08:00 10.3 5.8 74 0.0 LegendMM LegendMM   101.12     LegendNANA
09:00 11.1 6.0 71 0.0 LegendMM LegendMM   101.15     LegendNANA
10:00 11.7 5.8 67 0.0 LegendMM LegendMM   101.18     LegendNANA
11:00 12.4 2.9 52 0.0 LegendMM LegendMM   101.18     LegendNANA
12:00 12.7 3.6 54 0.0 LegendMM LegendMM   101.20     LegendNANA
13:00 13.0 2.7 50 0.0 LegendMM LegendMM   101.17     LegendNANA
14:00 12.5 0.8 45 0.0 LegendMM LegendMM   101.16     LegendNANA
15:00 12.2 -0.7 41 0.0 LegendMM LegendMM   101.19     LegendNANA
16:00 11.8 -0.7 42 0.0 LegendMM LegendMM   101.26     LegendNANA
17:00 11.2 0.9 49 0.0 LegendMM LegendMM   101.31     LegendNANA
18:00 10.1 1.4 55 0.0 LegendMM LegendMM   101.38     LegendNANA
19:00 9.1 1.7 60 0.0 LegendMM LegendMM   101.42     LegendNANA
20:00 8.5 2.0 64 0.0 LegendMM LegendMM   101.42     LegendNANA
21:00 8.0 2.0 66 0.0 LegendMM LegendMM   101.45     LegendNANA
22:00 7.8 2.1 67 0.0 LegendMM LegendMM   101.50     LegendNANA
23:00 7.4 2.3 70 0.0 LegendMM LegendMM   101.52     LegendNANA

Notes on Data Quality.

Legend

  • E = Estimated
  • M = Missing
  • NA = Not Available*
  • [empty] = Indicates an unobserved value
Date modified: